Weather History for Gaithersburg, MD

Change the Weather History Date:

Sunday, March 3, 2013

  Actual Average (KCGS) Record (KCGS)
Temperature  
Mean Temperature 32 °F -  
Max Temperature 39 °F 54 °F 78 °F (1972)
Min Temperature 26 °F 32 °F 9 °F (2014)
Degree Days  
Heating Degree Days 32    
Moisture  
Dew Point 18 °F    
Average Humidity 57    
Maximum Humidity 74    
Minimum Humidity 41    
Precipitation  
Precipitation 0.00 in - - ()
Sea Level Pressure  
Sea Level Pressure 29.86 in    
Wind  
Wind Speed 11 mph (NW)    
Max Wind Speed 21 mph    
Max Gust Speed 29 mph    
Visibility 10 miles    
Events      
Averages and records for this station are not official NWS values.
T = Trace of Precipitation, MM = Missing Value Source: NWS Daily Summary

Daily Weather History Graph

Daily Weather History Graph

Search for Another Location

Airport:

Trip Planner

Search our weather history database for the weather conditions in past years. The results will help you decide how hot, cold, wet, or windy it might be!

Date:

Astronomy

Mar. 03, 2013 Rise Set
Actual Time 6:38 AM EST 6:03 PM EST
Civil Twilight 6:11 AM EST 6:30 PM EST
Nautical Twilight 5:40 AM EST 7:01 PM EST
Astronomical Twilight 5:09 AM EST 7:32 PM EST
Moon No Moon Rise 9:54 AM EST (3/3)
Length of Visible Light 12h 19m
Length of Day
11h 25m
Waning Gibbous, 64% of the Moon is Illuminated
Mar 3
Waning Gibbous
Mar 4
Last Quarter
Mar 11
New
Mar 19
First Quarter
Mar 27
Full

Hourly Weather History & Observations

Time (EST) Temp. Windchill Dew Point Humidity Pressure Visibility Wind Dir Wind Speed Gust Speed Precip Events Conditions
12:15 AM 28.4 °F 20.4 °F 17.6 °F 64% 29.86 in 10.0 mi NW 8.1 mph - N/A   Partly Cloudy
12:35 AM 28.4 °F 19.7 °F 17.6 °F 64% 29.87 in 10.0 mi NNW 9.2 mph - N/A   Clear
12:55 AM 28.4 °F 19.7 °F 17.6 °F 64% 29.86 in 10.0 mi NNW 9.2 mph 16.1 mph N/A   Mostly Cloudy
1:15 AM 28.4 °F 19.1 °F 17.6 °F 64% 29.87 in 10.0 mi NW 10.4 mph - N/A   Scattered Clouds
1:35 AM 26.6 °F 18.2 °F 17.6 °F 69% 29.87 in 10.0 mi NW 8.1 mph - N/A   Partly Cloudy
1:55 AM 26.6 °F 18.2 °F 17.6 °F 69% 29.86 in 10.0 mi NW 8.1 mph - N/A   Scattered Clouds
2:55 AM 28.4 °F 19.7 °F 17.6 °F 64% 29.85 in 10.0 mi NNW 9.2 mph - N/A   Overcast
3:15 AM 28.4 °F 20.4 °F 17.6 °F 64% 29.85 in 10.0 mi NNW 8.1 mph - N/A   Overcast
3:35 AM 28.4 °F 20.4 °F 17.6 °F 64% 29.85 in 10.0 mi NNW 8.1 mph - N/A   Overcast
3:55 AM 28.4 °F 18.5 °F 17.6 °F 64% 29.85 in 10.0 mi NW 11.5 mph - N/A   Overcast
4:15 AM 28.4 °F 18.5 °F 19.4 °F 69% 29.85 in 10.0 mi NNW 11.5 mph 17.3 mph N/A   Mostly Cloudy
4:35 AM 28.4 °F 19.1 °F 19.4 °F 69% 29.85 in 10.0 mi NW 10.4 mph - N/A   Overcast
4:55 AM 28.4 °F 19.1 °F 17.6 °F 64% 29.85 in 10.0 mi NW 10.4 mph - N/A   Mostly Cloudy
5:15 AM 28.4 °F 19.7 °F 19.4 °F 69% 29.86 in 10.0 mi NNW 9.2 mph - N/A   Mostly Cloudy
5:35 AM 28.4 °F 19.7 °F 19.4 °F 69% 29.87 in 10.0 mi NNW 9.2 mph - N/A   Mostly Cloudy
5:55 AM 28.4 °F 19.1 °F 19.4 °F 69% 29.86 in 10.0 mi NNW 10.4 mph 16.1 mph N/A   Partly Cloudy
6:15 AM 28.4 °F 19.7 °F 19.4 °F 69% 29.86 in 10.0 mi NNW 9.2 mph - N/A   Scattered Clouds
6:35 AM 28.4 °F 20.4 °F 19.4 °F 69% 29.86 in 10.0 mi NNW 8.1 mph - N/A   Mostly Cloudy
6:55 AM 26.6 °F 19.1 °F 19.4 °F 74% 29.86 in 10.0 mi NNW 6.9 mph - N/A   Scattered Clouds
7:15 AM 26.6 °F 18.2 °F 19.4 °F 74% 29.87 in 10.0 mi NNW 8.1 mph - N/A   Partly Cloudy
7:35 AM 28.4 °F 22.2 °F 19.4 °F 69% 29.87 in 10.0 mi NW 5.8 mph - N/A   Partly Cloudy
7:55 AM 28.4 °F 21.2 °F 19.4 °F 69% 29.87 in 10.0 mi NW 6.9 mph - N/A   Mostly Cloudy
8:15 AM 30.2 °F 23.4 °F 19.4 °F 64% 29.87 in 10.0 mi WNW 6.9 mph - N/A   Mostly Cloudy
8:35 AM 30.2 °F 21.9 °F 19.4 °F 64% 29.87 in 10.0 mi NW 9.2 mph 16.1 mph N/A   Overcast
8:55 AM 30.2 °F 21.9 °F 19.4 °F 64% 29.87 in 10.0 mi NNW 9.2 mph 20.7 mph N/A   Overcast
9:15 AM 30.2 °F 20.2 °F 19.4 °F 64% 29.87 in 10.0 mi NW 12.7 mph 18.4 mph N/A   Overcast
9:35 AM 30.2 °F 19.8 °F 19.4 °F 64% 29.87 in 10.0 mi NNW 13.8 mph 19.6 mph N/A   Overcast
9:55 AM 32.0 °F 21.6 °F 19.4 °F 60% 29.87 in 10.0 mi NW 15.0 mph 21.9 mph N/A   Overcast
10:15 AM 30.2 °F 19.8 °F 19.4 °F 64% 29.87 in 10.0 mi NW 13.8 mph 19.6 mph N/A   Overcast
10:35 AM 32.0 °F 20.8 °F 17.6 °F 55% 29.87 in 10.0 mi NW 17.3 mph 23.0 mph N/A   Overcast
10:55 AM 32.0 °F 22.5 °F 17.6 °F 55% 29.87 in 10.0 mi NW 12.7 mph 24.2 mph N/A   Overcast
11:15 AM 33.8 °F 24.8 °F 17.6 °F 52% 29.86 in 10.0 mi NNW 12.7 mph 20.7 mph N/A   Overcast
11:35 AM 33.8 °F 24.3 °F 17.6 °F 52% 29.86 in 10.0 mi NNW 13.8 mph 23.0 mph N/A   Overcast
11:55 AM 33.8 °F 24.8 °F 17.6 °F 52% 29.86 in 10.0 mi NNW 12.7 mph 24.2 mph N/A   Overcast
12:15 PM 35.6 °F 25.2 °F 15.8 °F 44% 29.85 in 10.0 mi NW 18.4 mph 26.5 mph N/A   Mostly Cloudy
12:35 PM 35.6 °F 27.1 °F 17.6 °F 48% 29.85 in 10.0 mi NW 12.7 mph 27.6 mph N/A   Overcast
12:55 PM 35.6 °F 27.1 °F 15.8 °F 44% 29.84 in 10.0 mi NNW 12.7 mph 20.7 mph N/A   Overcast
1:15 PM 35.6 °F 25.5 °F 15.8 °F 44% 29.83 in 10.0 mi NW 17.3 mph 20.7 mph N/A   Overcast
1:35 PM 37.4 °F 30.8 °F 17.6 °F 45% 29.82 in 10.0 mi North 9.2 mph 21.9 mph N/A   Overcast
1:55 PM 37.4 °F 28.2 °F 15.8 °F 41% 29.81 in 10.0 mi WNW 16.1 mph 24.2 mph N/A   Overcast
2:15 PM 37.4 °F 27.2 °F 17.6 °F 45% 29.81 in 10.0 mi NW 19.6 mph 25.3 mph N/A   Scattered Clouds
2:35 PM 37.4 °F 32.8 °F 17.6 °F 45% 29.81 in 10.0 mi North 5.8 mph 18.4 mph N/A   Mostly Cloudy
2:55 PM 37.4 °F 29.3 °F 15.8 °F 41% 29.81 in 10.0 mi NW 12.7 mph 21.9 mph N/A   Overcast
3:15 PM 37.4 °F 27.8 °F 17.6 °F 45% 29.81 in 10.0 mi NW 17.3 mph 28.8 mph N/A   Overcast
3:35 PM 37.4 °F 28.5 °F 17.6 °F 45% 29.81 in 10.0 mi NW 15.0 mph 26.5 mph N/A   Overcast
3:55 PM 39.2 °F 34.2 °F 17.6 °F 42% 29.81 in 10.0 mi NNW 6.9 mph 18.4 mph N/A   Overcast
4:15 PM 37.4 °F 30.8 °F 17.6 °F 45% 29.82 in 10.0 mi North 9.2 mph 20.7 mph N/A   Overcast
4:35 PM 37.4 °F 29.3 °F 17.6 °F 45% 29.82 in 10.0 mi NNW 12.7 mph 18.4 mph N/A   Overcast
4:55 PM 35.6 °F 24.8 °F 17.6 °F 48% 29.82 in 10.0 mi NW 19.6 mph 24.2 mph N/A   Mostly Cloudy
5:15 PM 35.6 °F 26.2 °F 17.6 °F 48% 29.83 in 10.0 mi NNW 15.0 mph 21.9 mph N/A   Scattered Clouds
5:35 PM 35.6 °F 27.1 °F 17.6 °F 48% 29.84 in 10.0 mi NNW 12.7 mph 18.4 mph N/A   Mostly Cloudy
5:55 PM 33.8 °F 22.2 °F 17.6 °F 52% 29.85 in 10.0 mi NW 20.7 mph 25.3 mph N/A   Overcast
6:15 PM 33.8 °F 25.3 °F 17.6 °F 52% 29.86 in 10.0 mi NNW 11.5 mph 25.3 mph N/A   Overcast
6:35 PM 33.8 °F 27.0 °F 15.8 °F 48% 29.87 in 10.0 mi NNW 8.1 mph 23.0 mph N/A   Overcast
6:55 PM 32.0 °F 24.8 °F 15.8 °F 51% 29.88 in 10.0 mi NW 8.1 mph - N/A   Scattered Clouds
7:35 PM 30.2 °F 19.8 °F 15.8 °F 55% 29.89 in 10.0 mi NNW 13.8 mph 19.6 mph N/A   Clear
7:55 PM 30.2 °F 19.8 °F 15.8 °F 55% 29.89 in 10.0 mi NW 13.8 mph 21.9 mph N/A   Clear
8:15 PM 30.2 °F 19.3 °F 15.8 °F 55% 29.90 in 10.0 mi NW 15.0 mph 18.4 mph N/A   Clear
8:35 PM 30.2 °F 18.9 °F 15.8 °F 55% 29.90 in 10.0 mi NW 16.1 mph 21.9 mph N/A   Clear
8:55 PM 30.2 °F 19.8 °F 15.8 °F 55% 29.91 in 10.0 mi NW 13.8 mph - N/A   Clear
9:15 PM 30.2 °F 19.8 °F 15.8 °F 55% 29.91 in 10.0 mi NW 13.8 mph 21.9 mph N/A   Clear
9:35 PM 28.4 °F 18.5 °F 15.8 °F 59% 29.91 in 10.0 mi NW 11.5 mph 17.3 mph N/A   Clear
10:15 PM 28.4 °F 18.5 °F 15.8 °F 59% 29.92 in 10.0 mi NW 11.5 mph 21.9 mph N/A   Mostly Cloudy
10:35 PM 28.4 °F 17.5 °F 15.8 °F 59% 29.92 in 10.0 mi NNW 13.8 mph 17.3 mph N/A   Mostly Cloudy
10:55 PM 28.4 °F 19.1 °F 15.8 °F 59% 29.92 in 10.0 mi NW 10.4 mph 21.9 mph N/A   Overcast
11:15 PM 30.2 °F 19.8 °F 15.8 °F 55% 29.92 in 10.0 mi NW 13.8 mph 20.7 mph N/A   Overcast
11:35 PM 30.2 °F 18.9 °F 15.8 °F 55% 29.92 in 10.0 mi NW 16.1 mph 21.9 mph N/A   Overcast
11:55 PM 30.2 °F 19.8 °F 15.8 °F 55% 29.92 in 10.0 mi NW 13.8 mph 20.7 mph N/A   Overcast